Tracking 33407 objects as of 5-Mar-2026
HD Live streaming from Space Station
objects crossing your sky now

STARLINK-5708

Track STARLINK-5708 now!
10-day predictions
STARLINK-5708 is classified as:


NORAD ID: 55470
Int'l Code: 2023-015X
Perigee: 565.4 km
Apogee: 567.0 km
Inclination: 43.0 °
Period: 95.8 minutes
Semi major axis: 6937 km
RCS: Unknown
Launch date: February 2, 2023
Source: United States (US)
Launch site: AIR FORCE EASTERN TEST RANGE (AFETR)
Your satellite tracking list
Your tracking list is empty




NASA's NSSDC Master Catalog

Two Line Element Set (TLE):
1 55470U 23015X   26064.14940188  .00000082  00000-0  21118-4 0  9992
2 55470  43.0044 350.4346 0001180 271.5242  88.5465 15.02533286170072
Source of the keplerian elements: AFSPC